Freeport, Bahamas

4:49 AM EDT on April 30, 2017 (GMT -0400)
Grand Bahama International

Weather History for MYGF - May, 2013

Change the Weather History Date:

Tuesday, May 28, 2013

  Actual Average Record
Temperature  
Mean Temperature 76 °F -  
Max Temperature 80 °F 85 °F 89 °F (2000)
Min Temperature 73 °F 76 °F 68 °F (2007)
Cooling Degree Days 12    
Growing Degree Days 26 (Base 50)    
Moisture  
Dew Point 74 °F    
Average Humidity 88    
Maximum Humidity 94    
Minimum Humidity 81    
Precipitation  
Precipitation 0.20 in - - ()
Sea Level Pressure  
Sea Level Pressure 30.10 in    
Wind  
Wind Speed 8 mph ()    
Max Wind Speed 12 mph    
Max Gust Speed -    
Visibility 7.0 miles    
Events Rain    
Averages and records for this station are not official NWS values.
T = Trace of Precipitation, MM = Missing Value Source: Averaged Metar Reports

Daily Weather History Graph

Daily Weather History Graph

Search for Another Location

Airport or City:

Trip Planner

Search our weather history database for the weather conditions in past years. The results will help you decide how hot, cold, wet, or windy it might be!

Date:

Astronomy

May. 28, 2013 Rise Set
Actual Time 6:22 AM EDT 8:01 PM EDT
Civil Twilight 5:56 AM EDT 8:27 PM EDT
Nautical Twilight 5:25 AM EDT 8:58 PM EDT
Astronomical Twilight 4:53 AM EDT 9:31 PM EDT
Moon 11:36 PM EDT (5/28) 10:00 AM EDT (5/28)
Length of Visible Light 14h 30m
Length of Day
13h 39m
Waning Gibbous, 83% of the Moon is Illuminated
May 28
Waning Gibbous
May 31
Last Quarter
Jun 8
New
Jun 16
First Quarter
Jun 23
Full

Hourly Weather History & Observations

Time (EDT) Temp. Heat Index Dew Point Humidity Pressure Visibility Wind Dir Wind Speed Gust Speed Precip Events Conditions
7:00 AM 77.0 °F - 73.4 °F 89% 30.07 in 6.2 mi East 10.4 mph - N/A   Mostly Cloudy
8:00 AM 77 °F - 74 °F 87% 30.09 in 12 mi East 10.4 mph - -   Partly Cloudy
8:00 AM 78.8 °F - 73.4 °F 83% 30.09 in 6.2 mi East 10.4 mph - N/A   Mostly Cloudy
9:00 AM 78.8 °F - 73.4 °F 83% 30.10 in 6.2 mi East 11.5 mph - N/A   Overcast
10:00 AM 78.8 °F - 73.4 °F 83% 30.11 in 6.2 mi ESE 10.4 mph - N/A   Mostly Cloudy
11:00 AM 80 °F - 75 °F 81% 30.11 in 12 mi East 11.5 mph - -   Mostly Cloudy
11:00 AM 80.6 °F 86.2 °F 75.2 °F 84% 30.11 in 6.2 mi East 11.5 mph - N/A   Mostly Cloudy
11:10 AM 77.0 °F - 73.4 °F 89% 30.11 in - SE 11.5 mph - N/A Rain Heavy Rain Showers
11:15 AM 77.0 °F - 73.4 °F 89% 30.11 in 5.6 mi ESE 9.2 mph - N/A Rain Light Rain Showers
12:00 PM 77.0 °F - 73.4 °F 89% 30.11 in 6.2 mi ESE 9.2 mph - N/A Rain Rain Showers
1:00 PM 77.0 °F - 73.4 °F 89% 30.11 in 6.2 mi East 4.6 mph - N/A Rain Light Rain
2:00 PM 80 °F - 76 °F 84% 30.09 in 9 mi East 8.1 mph - -   Partly Cloudy
2:00 PM 78.8 °F - 77.0 °F 94% 30.09 in 6.2 mi East 8.1 mph - N/A   Overcast
3:00 PM 78.8 °F - 77.0 °F 94% 30.09 in 6.2 mi SE 8.1 mph - N/A   Overcast
4:00 PM 78.8 °F - 73.4 °F 83% 30.09 in 6.2 mi SE 8.1 mph - N/A   Mostly Cloudy
5:00 PM 73.4 °F - 71.6 °F 94% 30.08 in 6.2 mi SE 8.1 mph - N/A   Mostly Cloudy
6:00 PM 75.2 °F - 71.6 °F 89% 30.08 in 6.2 mi ESE 6.9 mph - N/A   Overcast
7:00 PM 75.2 °F - 71.6 °F 89% 30.08 in 6.2 mi ESE 8.1 mph - N/A   Overcast
8:00 PM 73.4 °F - 71.6 °F 94% 30.10 in 6.2 mi ESE 3.5 mph - N/A Rain Rain